Regional Weather Roundup
Issued by NWS Albany, NY

Home | Current Version | Previous Version | Text Only | Print | Product List | Glossary On
Versions: 1 2 3 4 5 6 7 8 9 10 11 12 13 14 15 16 17 18 19 20 21 22 23 24 25 26 27 28 29 30 31 32 33 34 35 36 37 38 39 40 41 42 43 44 45 46 47 48 49 50
952
ASUS41 KALY 061310
RWRALY

NEW YORK STATE HOURLY WEATHER ROUNDUP
NATIONAL WEATHER SERVICE ALBANY NY
800 AM EST SAT FEB 06 2016

NOTE: "FAIR" INDICATES FEW OR NO CLOUDS BELOW 12,000 FEET WITH NO
SIGNIFICANT WEATHER AND/OR NO OBSTRUCTIONS TO VISIBILITY.

NYZ032-033-038>043-046>054-057>066-NYZ062>081-061400-
EAST


CITY           SKY/WX    TMP DP  RH WIND       PRES   REMARKS
ALBANY         MOCLDY    25  16  68 S7        30.35R WCI  17
GLENS FALLS    CLOUDY    24  17  74 S7        30.32R WCI  16
POUGHKEEPSIE   CLOUDY    27  19  72 CALM      30.40R
NEWBURGH       CLEAR     25  19  80 W7        30.39R WCI  17
MONTGOMERY     CLOUDY    24  18  77 SW6       30.39R WCI  17
WHITE PLAINS   PTCLDY    27  17  66 W6        30.38R WCI  20
ISLIP          CLOUDY    19  18  95 CALM      30.40R
NEW YORK CITY  PTCLDY    34  18  52 W9        30.42R WCI  27
CENTRAL PARK   PTCLDY    31  17  56 W5        30.44R WCI  26
$$

NYZ005>009-017-018-044>046-055-056-061400-
CENTRAL


CITY           SKY/WX    TMP DP  RH WIND       PRES   REMARKS
FULTON         CLOUDY    34  20  56 S12       30.24S WCI  25
SYRACUSE       CLOUDY    32  18  56 SW13      30.26S WCI  22
ROME           CLOUDY    27  20  75 E8        30.30R WCI  19
ELMIRA         CLOUDY    23  20  88 CALM      30.29S
BINGHAMTON     CLOUDY    22  15  75 S7        30.26R WCI  13
MONTICELLO     CLOUDY    18  16  93 CALM      30.34R
$$

NYZ026>034-041>043-061400-
NORTH


CITY           SKY/WX    TMP DP  RH WIND       PRES   REMARKS
WATERTOWN      CLOUDY    31  20  63 S10       30.22S WCI  22
FORT DRUM      NOT AVBL
MASSENA        SNOW      30  27  88 SW10      30.21F VSB 1/2 WCI  21
SARANAC LAKE   LGT SNOW  24  21  88 SW12      30.14R FOG     WCI  13
PLATTSBURGH    CLOUDY    29  20  69 S3        30.23R
$$

NYZ001>004-010>016-019>021-061400-
WEST


CITY           SKY/WX    TMP DP  RH WIND       PRES   REMARKS
NIAGARA FALLS  FLURRIES  34  26  72 SW20G25   30.20R WCI  23
BUFFALO        MOCLDY    33  25  72 W21G30    30.21R WCI  21
DUNKIRK        MOCLDY    32  25  75 SW16G24   30.25R WCI  21
JAMESTOWN      CLOUDY    27  16  63 SW8       30.21R WCI  18
WELLSVILLE     CLOUDY    26  16  65 VRB7      30.21R WCI  18
ROCHESTER      CLOUDY    31  20  63 SW8       30.23R WCI  23
PENN YAN       CLOUDY    29  19  66 S10       30.24F WCI  20
$$

             KEY
       WCI = WIND CHILL INDEX
       VSB = VISIBILITY
       HX  = HEAT INDEX
$$




USA.gov is the U.S. government's official web portal to all federal, state and local government web resources and services.